Location: Vienna
(48.2082°N, 16.3738°E)
Time: 01:02:52
(UTC+02:00)

ISS - Visible Passes

Search period start: 16 July 2018 00:00
Search period end: 26 July 2018 00:00
Orbit: 402 x 408 km, 51.6° (Epoch: 16 July)

Date Brightness Start Highest point End Pass type
(mag) Time Alt. Az. Time Alt. Az. Time Alt. Az.
16 Jul -3.1 00:59:18 46° ENE 00:59:18 46° ENE 01:01:45 10° ENE visible
16 Jul -2.7 02:31:56 10° W 02:35:07 45° N 02:38:19 10° ENE visible
16 Jul -3.2 04:08:40 10° WNW 04:11:57 60° NNE 04:15:13 10° E visible
17 Jul -1.8 00:08:36 18° E 00:08:36 18° E 00:09:39 10° ENE visible
17 Jul -3.0 01:41:13 23° WNW 01:42:58 51° N 01:46:12 10° ENE visible
17 Jul -2.8 03:16:34 10° WNW 03:19:48 49° N 03:23:01 10° E visible
18 Jul -3.5 00:50:13 51° WNW 00:50:48 64° NNW 00:54:05 10° ENE visible
18 Jul -2.6 02:24:26 10° WNW 02:27:36 44° N 02:30:48 10° ENE visible
18 Jul -3.8 04:01:00 10° WNW 04:04:19 89° S 04:07:37 10° ESE visible
18 Jul -3.9 23:58:12 62° WSW 23:58:42 88° N 00:02:00 10° ENE visible
19 Jul -2.6 01:32:14 10° WNW 01:35:24 44° N 01:38:35 10° ENE visible
19 Jul -3.4 03:08:54 10° WNW 03:12:12 66° NNE 03:15:29 10° E visible
19 Jul -1.9 21:29:24 10° SSE 21:30:40 12° SE 21:31:56 10° ESE visible
19 Jul -3.9 23:03:22 10° SW 23:06:37 61° SSE 23:09:51 10° ENE visible
20 Jul -2.8 00:40:00 10° W 00:43:12 48° N 00:46:25 10° ENE visible
20 Jul -3.0 02:16:47 10° WNW 02:20:01 52° NNE 02:23:16 10° E visible
20 Jul -3.6 03:53:20 10° WNW 03:56:32 49° SSW 03:59:44 10° SE visible
20 Jul -3.4 22:11:30 10° SW 22:14:34 38° SSE 22:17:39 10° ENE visible
20 Jul -3.2 23:47:45 10° W 23:51:00 58° NNW 23:54:15 10° ENE visible
21 Jul -2.7 01:24:37 10° WNW 01:27:49 45° N 01:31:00 10° E visible
21 Jul -4.0 03:01:10 10° WNW 03:04:29 77° SSW 03:07:45 10° ESE visible
21 Jul -2.6 21:19:55 10° SSW 21:22:35 23° SE 21:25:17 10° E visible
21 Jul -3.7 22:55:32 10° WSW 22:58:50 78° NNW 23:02:07 10° ENE visible
22 Jul -2.6 00:32:24 10° WNW 00:35:34 43° N 00:38:44 10° ENE visible
22 Jul -3.7 02:09:02 10° WNW 02:12:20 74° NNE 02:15:37 10° ESE visible
22 Jul -2.8 03:45:49 10° W 03:48:36 25° SW 03:51:22 10° SSE visible
22 Jul -3.9 22:03:25 10° WSW 22:06:41 72° SSE 22:09:58 10° ENE visible
22 Jul -2.7 23:40:08 10° W 23:43:19 46° N 23:46:31 10° ENE visible
23 Jul -3.2 01:16:53 10° WNW 01:20:08 56° NNE 01:20:48 45° ENE visible
23 Jul -3.0 22:47:51 10° W 22:51:04 53° NNW 22:54:19 10° ENE visible
24 Jul -2.8 00:24:41 10° WNW 00:27:53 47° N 00:29:05 31° ENE visible
24 Jul -1.3 02:01:14 10° WNW 02:01:40 13° WNW 02:01:40 13° WNW visible
24 Jul -3.5 21:55:34 10° WSW 21:58:50 69° NNW 22:02:08 10° ENE visible
24 Jul -2.7 23:32:27 10° WNW 23:35:37 43° N 23:38:04 15° ENE visible
25 Jul -2.1 01:09:03 10° WNW 01:10:41 27° WNW 01:10:41 27° WNW visible
25 Jul -2.7 22:40:09 10° W 22:43:19 44° N 22:46:31 10° ENE visible
